Location: Newark
(32.5667°N, 57.6833°E)
Time: 14:19:47
(UTC+00:00)

X-37B - Visible Passes

Search period start: 29 September 2020 00:00
Search period end: 09 October 2020 00:00
Orbit: 386 x 387 km, 45.0° (Epoch: 18 September)

Date Brightness Start Highest point End Pass type
(mag) Time Alt. Az. Time Alt. Az. Time Alt. Az.
29 Sep 3.2 15:47:01 10° SW 15:47:45 16° SW 15:47:45 16° SW visible
30 Sep 1.7 14:48:55 10° SSW 14:51:41 28° SE 14:52:34 24° ESE visible
01 Oct 1.1 15:26:29 10° WSW 15:29:31 56° NW 15:29:31 56° NW visible
02 Oct 0.6 14:27:54 10° SW 14:31:02 64° SE 14:34:01 11° ENE visible
02 Oct 3.8 16:05:33 10° WNW 16:06:19 14° WNW 16:06:19 14° WNW visible
03 Oct 2.3 15:06:17 10° W 15:09:07 29° NNW 15:10:41 19° NNE visible
04 Oct 1.2 14:07:21 10° WSW 14:10:28 56° NNW 14:13:36 10° NE visible
04 Oct 3.5 15:45:58 10° NW 15:47:12 13° NNW 15:47:12 13° NNW visible
05 Oct 3.0 14:46:25 10° WNW 14:48:44 18° NNW 14:51:04 10° NNE visible
06 Oct 3.5 15:26:54 10° NNW 15:27:21 10° N 15:27:42 10° N visible
07 Oct 3.3 14:26:51 10° NW 14:28:27 13° NNW 14:30:03 10° NNE visible
